[[{"header":{"parameterUnit":"m.s-1","parameterCategory":1,"la1":30.2991,"la2":30.254,"lo1":-89.0895,"lo2":-89.0444,"dy":0.0017,"dx":0.0017,"nx":28,"ny":28,"refTime":"2025-04-07T21:00:00:Z","depth":0,"parameterNumber":2,"parameterNumberName":"U-component_of_WINDS"},"data":[0,0,0,0,0,0,0,0,0,0,0,0,0,0,0,0,0,0,0,0,0,0,0,0,0,0,0,0,0,0,0,0,0,0,0,0,0,0,0,0,0,0,0,0,0,0,0,0,0,0,0,0,0,0,0,0,0,0,1.6674,1.6674,0,1.6643,1.6642,1.6642,1.6637,1.6638,1.6638,1.6638,1.6603,1.6602,1.6601,0,0,0,0,0,0,0,0,0,0,0,0,0,1.6728,1.6727,1.6674,1.6674,1.6673,1.6643,1.6642,1.6642,1.6637,1.6638,1.6638,1.6638,1.6603,1.6602,1.66,0,0,0,0,0,0,0,0,0,0,0,0,0,1.6701,1.6726,1.6674,1.6668,1.6667,1.6643,1.6642,1.6642,1.6637,1.6638,1.6638,1.6639,1.6604,1.6602,1.66,1.658,0,0,1.6595,1.6594,0,0,0,0,0,0,0,0,1.6703,1.6699,1.6669,1.6668,1.6667,1.6644,1.6648,1.6621,1.6637,1.6648,1.6638,1.6639,1.6616,1.6613,1.6606,1.6578,1.6577,1.6594,1.6593,1.6593,1.6592,0,0,0,0,0,0,0,1.6704,1.67,1.6662,1.6669,1.6667,1.6665,1.6662,1.6643,1.663,1.6647,1.6647,1.6643,1.6616,1.6608,1.6605,1.6576,1.6594,1.6593,1.6592,1.6591,1.6528,1.6527,0,0,0,0,0,0,1.6708,1.6702,1.6663,1.6661,1.6686,1.6664,1.666,1.6651,1.663,1.6628,1.6643,1.6643,1.6611,1.6608,1.6604,1.6578,1.6593,1.6591,1.659,1.6528,1.6528,1.6527,0,0,0,0,0,0,1.6709,1.6704,1.6664,1.6681,1.6676,1.6662,1.6652,1.665,1.6643,1.6627,1.6624,1.6638,1.6611,1.6607,1.6586,1.6576,1.659,1.6588,1.6529,1.6528,1.6527,1.6525,0,0,0,0,0,0,1.6711,1.6705,1.6698,1.6681,1.6675,1.6647,1.6652,1.6649,1.664,1.664,1.6621,1.6619,1.6611,1.6588,1.6584,1.6574,1.6587,1.653,1.6529,1.6528,1.6526,1.6524,1.6523,0,0,0,0,0,1.6713,1.6698,1.6698,1.6693,1.6666,1.6646,1.6643,1.6635,1.6639,1.6631,1.6621,1.6619,1.6578,1.6586,1.6581,1.6571,1.653,1.6529,1.6528,1.6527,1.6524,1.6523,0,0,0,0,0,0,1.6713,1.6696,1.6695,1.6675,1.6662,1.6646,1.6636,1.6634,1.6619,1.6619,1.661,1.6606,1.6585,1.6576,1.6585,1.6549,1.6555,1.6552,1.6555,1.6553,1.6552,1.6554,1.6585,0,0,0,0,0,1.6711,1.6698,1.6683,1.6667,1.6661,1.6649,1.664,1.6636,1.6622,1.6616,1.6604,1.659,1.6574,1.6563,1.6548,1.6525,1.652,1.6515,1.6514,1.6512,1.651,1.6495,1.6492,1.6523,1.6523,1.6523,0,0,1.6707,1.6696,1.6688,1.6667,1.6656,1.6641,1.6645,1.6629,1.6617,1.6613,1.6593,1.6584,1.6567,1.6545,1.6534,1.6536,1.65,1.6511,1.651,1.6508,1.6494,1.6491,1.6488,1.6522,1.6522,1.6522,0,0,1.669,1.6681,1.6666,1.6656,1.664,1.6633,1.6629,1.6613,1.6607,1.6586,1.6582,1.6568,1.6541,1.6528,1.6519,1.6497,1.6494,1.6492,1.6484,1.647,1.6467,1.6465,1.6455,1.6452,1.649,1.649,1.649,0,1.6686,1.6665,1.6658,1.6643,1.6633,1.6629,1.6613,1.6603,1.6583,1.6575,1.6579,1.6544,1.6532,1.6506,1.6501,1.6494,1.6488,1.6494,1.6468,1.6466,1.6464,1.6455,1.6451,1.649,1.649,1.649,1.649,0,1.666,1.6644,1.6634,1.6615,1.6604,1.6588,1.6578,1.6568,1.6564,1.6555,1.6533,1.652,1.6501,1.6494,1.649,1.6467,1.6469,1.6471,1.6476,1.6461,1.6452,1.6448,1.649,1.649,1.649,1.649,0,0,1.6642,1.662,1.6616,1.6607,1.6589,1.6577,1.656,1.6542,1.6532,1.6519,1.6503,1.648,1.6481,1.647,1.6464,1.6452,1.6434,1.6455,1.6454,1.645,1.6405,1.6403,1.6399,1.6433,1.6432,1.6431,1.6406,0,1.6623,1.6594,1.6587,1.6562,1.6546,1.6543,1.6528,1.6515,1.6507,1.6492,1.6482,1.6465,1.6469,1.6462,1.645,1.6439,1.6424,1.6441,1.6416,1.6415,1.6419,1.6395,1.6393,1.6369,1.6403,1.6402,1.6402,0,1.6596,1.6582,1.6555,1.6538,1.6532,1.6518,1.6501,1.6487,1.6471,1.6466,1.6454,1.6449,1.643,1.6437,1.641,1.6421,1.6411,1.6404,1.6402,1.6398,1.6406,1.6388,1.6362,1.6358,1.6397,1.6397,1.6397,0,1.6584,1.6558,1.6539,1.6531,1.6511,1.6502,1.6493,1.6478,1.6467,1.6452,1.6444,1.6426,1.6416,1.6401,1.6392,1.6398,1.6364,1.6371,1.6358,1.6358,1.6349,1.635,1.6319,1.6346,1.6346,1.6346,1.6346,0,1.6562,1.6545,1.6533,1.652,1.6501,1.6493,1.6473,1.6465,1.6451,1.6436,1.6432,1.6417,1.6406,1.639,1.6382,1.6359,1.6355,1.6349,1.6347,1.6348,1.6349,1.634,1.6341,1.6345,1.6345,1.6345,1.6345,0,1.6545,1.6536,1.6514,1.6497,1.6493,1.6479,1.6464,1.6451,1.6443,1.6423,1.6418,1.6404,1.6385,1.6374,1.6349,1.6344,1.6318,1.6318,1.6323,1.6322,1.6308,1.6309,1.6269,1.6263,1.6296,1.6296,1.6295,0,1.6531,1.6518,1.65,1.6489,1.648,1.6464,1.6453,1.6445,1.6433,1.6414,1.6403,1.6383,1.6366,1.6335,1.6322,1.6303,1.63,1.6288,1.6297,1.6299,1.6298,1.6298,1.6296,1.6286,1.6285,1.6285,1.6285,0,1.6506,1.6502,1.6487,1.6469,1.6456,1.6442,1.6428,1.6419,1.6408,1.6395,1.6375,1.6363,1.6337,1.6317,1.6296,1.6286,1.6283,1.6282,1.6278,1.6278,1.6281,1.6277,1.6317,1.6283,1.6283,1.6283,1.6283,1.6283,1.6488,1.6476,1.6461,1.6443,1.6432,1.6419,1.6405,1.6395,1.6379,1.6358,1.6354,1.6332,1.6315,1.6288,1.6277,1.6259,1.6261,1.6255,1.6253,1.6251,1.6249,1.6286,1.6255,1.6255,1.6255,1.6255,1.6255,0,1.6462,1.6452,1.6436,1.6416,1.6402,1.6402,1.6386,1.6373,1.6354,1.634,1.6324,1.63,1.628,1.6266,1.6245,1.6233,1.6231,1.6228,1.6227,1.6224,1.625,1.6255,1.6229,1.6229,1.623,1.623,1.623,1.623,1.6446,1.6424,1.6418,1.639,1.638,1.6359,1.635,1.6337,1.6325,1.6299,1.6282,1.6274,1.6258,1.6236,1.6217,1.6213,1.6205,1.6201,1.6197,1.622,1.6223,1.6226,1.623,1.62,1.62,1.6173,1.6173,1.6173]},{"header":{"parameterUnit":"m.s-1","parameterCategory":1,"la1":30.2991,"la2":30.254,"lo1":-89.0895,"lo2":-89.0444,"dy":0.0017,"dx":0.0017,"nx":28,"ny":28,"refTime":"2025-04-07T21:00:00:Z","depth":0,"parameterNumber":3,"parameterNumberName":"V-component_of_WINDS"},"data":[0,0,0,0,0,0,0,0,0,0,0,0,0,0,0,0,0,0,0,0,0,0,0,0,0,0,0,0,0,0,0,0,0,0,0,0,0,0,0,0,0,0,0,0,0,0,0,0,0,0,0,0,0,0,0,0,0,0,-5.0527,-5.0529,0,-5.073,-5.0732,-5.0734,-5.069,-5.0687,-5.0683,-5.0679,-5.0886,-5.0895,-5.0904,0,0,0,0,0,0,0,0,0,0,0,0,0,-5.0099,-5.0107,-5.0526,-5.0529,-5.0532,-5.0729,-5.0732,-5.0735,-5.0691,-5.0686,-5.0682,-5.0677,-5.0883,-5.0894,-5.0904,0,0,0,0,0,0,0,0,0,0,0,0,0,-5.0292,-5.011,-5.0526,-5.0533,-5.0536,-5.0729,-5.0732,-5.0736,-5.0692,-5.0686,-5.0681,-5.0675,-5.0879,-5.0893,-5.0906,-5.1103,0,0,-5.0947,-5.0953,0,0,0,0,0,0,0,0,-5.0281,-5.0307,-5.053,-5.0533,-5.0537,-5.0679,-5.0657,-5.0859,-5.0693,-5.0633,-5.0679,-5.0672,-5.0822,-5.0839,-5.089,-5.1113,-5.1122,-5.0949,-5.0957,-5.0963,-5.0966,0,0,0,0,0,0,0,-5.0267,-5.0298,-5.0607,-5.0533,-5.0537,-5.0526,-5.0547,-5.0695,-5.0757,-5.0638,-5.0635,-5.066,-5.0822,-5.0877,-5.0895,-5.1125,-5.0948,-5.096,-5.0969,-5.0974,-5.152,-5.1526,0,0,0,0,0,0,-5.0251,-5.0287,-5.06,-5.0613,-5.0392,-5.0539,-5.0562,-5.0639,-5.0755,-5.0767,-5.0664,-5.0657,-5.0857,-5.0879,-5.0902,-5.1141,-5.0962,-5.0975,-5.0983,-5.1513,-5.1521,-5.1528,0,0,0,0,0,0,-5.0242,-5.028,-5.0592,-5.045,-5.0489,-5.0552,-5.0639,-5.0646,-5.0701,-5.0775,-5.0785,-5.0709,-5.0853,-5.0883,-5.1054,-5.1147,-5.0981,-5.0994,-5.1506,-5.1516,-5.1525,-5.162,0,0,0,0,0,0,-5.023,-5.0277,-5.0353,-5.0452,-5.0496,-5.0742,-5.0644,-5.0654,-5.0724,-5.0717,-5.082,-5.0832,-5.0851,-5.1034,-5.1067,-5.1163,-5.1004,-5.1498,-5.151,-5.1522,-5.1609,-5.1631,-5.1651,0,0,0,0,0,-5.0215,-5.0371,-5.0357,-5.0395,-5.0593,-5.0747,-5.0773,-5.0792,-5.0732,-5.0809,-5.0857,-5.0828,-5.1131,-5.1052,-5.1089,-5.119,-5.1492,-5.1507,-5.1521,-5.1599,-5.1627,-5.165,0,0,0,0,0,0,-5.0281,-5.0384,-5.0369,-5.0562,-5.0646,-5.0739,-5.0837,-5.0821,-5.0923,-5.0912,-5.0931,-5.0955,-5.1129,-5.1176,-5.1086,-5.1387,-5.1303,-5.1325,-5.135,-5.1377,-5.1398,-5.1383,-5.1015,0,0,0,0,0,-5.0318,-5.0435,-5.0519,-5.0681,-5.0724,-5.0773,-5.0841,-5.0849,-5.0937,-5.0972,-5.1032,-5.1117,-5.1232,-5.1307,-5.1416,-5.1615,-5.1637,-5.1703,-5.1724,-5.1741,-5.176,-5.1868,-5.1899,-5.1575,-5.1575,-5.1575,0,0,-5.0396,-5.0467,-5.054,-5.0696,-5.0762,-5.0882,-5.0804,-5.0934,-5.1024,-5.0991,-5.1157,-5.1204,-5.13,-5.1486,-5.1571,-5.1531,-5.1854,-5.1759,-5.1772,-5.1782,-5.1886,-5.1917,-5.1944,-5.1585,-5.1583,-5.1582,0,0,-5.06,-5.0665,-5.0807,-5.0875,-5.0976,-5.1008,-5.1042,-5.1138,-5.1168,-5.1334,-5.1312,-5.1418,-5.1615,-5.1685,-5.1746,-5.1976,-5.1953,-5.2011,-5.2121,-5.2227,-5.2252,-5.2275,-5.2357,-5.2386,-5.2029,-5.203,-5.203,0,-5.0683,-5.0864,-5.0882,-5.1015,-5.1085,-5.1061,-5.1205,-5.127,-5.1401,-5.1449,-5.1403,-5.1649,-5.1713,-5.1914,-5.197,-5.2021,-5.206,-5.1999,-5.2247,-5.227,-5.2292,-5.237,-5.2401,-5.2036,-5.2035,-5.2035,-5.2034,0,-5.0963,-5.1088,-5.1191,-5.1319,-5.14,-5.1538,-5.1576,-5.1655,-5.1656,-5.1692,-5.1862,-5.1937,-5.2061,-5.2109,-5.2111,-5.2312,-5.2284,-5.2242,-5.2158,-5.2329,-5.2402,-5.2432,-5.2045,-5.2043,-5.2041,-5.2039,0,0,-5.1214,-5.135,-5.1387,-5.1445,-5.1554,-5.1652,-5.1788,-5.191,-5.1978,-5.2069,-5.2184,-5.235,-5.2313,-5.2382,-5.2391,-5.2484,-5.2661,-5.2431,-5.2434,-5.2471,-5.2886,-5.2917,-5.2951,-5.2646,-5.2652,-5.2657,-5.2878,0,-5.1428,-5.1669,-5.1688,-5.1905,-5.2022,-5.2001,-5.2119,-5.2199,-5.2237,-5.234,-5.2381,-5.25,-5.2441,-5.2482,-5.2573,-5.262,-5.2744,-5.2604,-5.2753,-5.2758,-5.273,-5.299,-5.3023,-5.3228,-5.2907,-5.2912,-5.2915,0,-5.1709,-5.1809,-5.2038,-5.2131,-5.218,-5.2287,-5.24,-5.2499,-5.2589,-5.2609,-5.2687,-5.2684,-5.2823,-5.2734,-5.2926,-5.2831,-5.2893,-5.2925,-5.2933,-5.2948,-5.2847,-5.3012,-5.3294,-5.3325,-5.2961,-5.2957,-5.2954,0,-5.187,-5.2061,-5.2223,-5.2273,-5.2385,-5.2461,-5.2511,-5.2595,-5.2667,-5.2765,-5.2812,-5.2925,-5.2988,-5.3075,-5.3102,-5.3035,-5.3294,-5.3207,-5.3315,-5.3314,-5.3371,-5.3367,-5.3667,-5.341,-5.341,-5.3409,-5.3408,0,-5.2106,-5.2247,-5.2297,-5.2396,-5.2553,-5.2574,-5.2728,-5.2774,-5.2849,-5.2957,-5.2945,-5.3046,-5.3075,-5.3182,-5.3203,-5.3359,-5.3387,-5.3408,-5.3412,-5.3409,-5.3407,-5.345,-5.3437,-5.3417,-5.3415,-5.3414,-5.3412,0,-5.2313,-5.2352,-5.2526,-5.2618,-5.2645,-5.2756,-5.2835,-5.293,-5.2965,-5.3102,-5.3135,-5.319,-5.3315,-5.335,-5.3499,-5.3514,-5.3697,-5.3688,-5.3667,-5.3668,-5.3774,-5.3763,-5.4113,-5.416,-5.3871,-5.3874,-5.3876,0,-5.2462,-5.2569,-5.2673,-5.2744,-5.2798,-5.2913,-5.2986,-5.301,-5.3087,-5.3197,-5.3279,-5.3402,-5.3502,-5.3701,-5.3755,-5.3868,-5.3862,-5.3977,-5.3879,-5.3873,-5.3864,-5.3858,-5.3868,-5.3995,-5.3998,-5.4001,-5.4003,0,-5.2721,-5.2735,-5.2842,-5.2955,-5.3043,-5.3133,-5.322,-5.3279,-5.3316,-5.3402,-5.353,-5.3607,-5.3759,-5.3881,-5.3996,-5.4047,-5.4032,-5.4033,-5.4064,-5.4063,-5.4046,-5.4057,-5.3718,-5.4025,-5.4023,-5.4021,-5.402,-5.4019,-5.2904,-5.2999,-5.3086,-5.3205,-5.3273,-5.3354,-5.3448,-5.3495,-5.3602,-5.3728,-5.3736,-5.3874,-5.396,-5.4113,-5.417,-5.4278,-5.4244,-5.4289,-5.4301,-5.4312,-5.4321,-5.4029,-5.4299,-5.4298,-5.4298,-5.4297,-5.4297,0,-5.3164,-5.3219,-5.3328,-5.345,-5.3543,-5.352,-5.3614,-5.3694,-5.3816,-5.3898,-5.3996,-5.4142,-5.426,-5.4322,-5.444,-5.4514,-5.451,-5.4544,-5.4539,-5.4551,-5.4344,-5.4306,-5.4546,-5.4545,-5.4545,-5.4545,-5.4545,-5.4545,-5.331,-5.3469,-5.3493,-5.3685,-5.3739,-5.3875,-5.3931,-5.4005,-5.4071,-5.4234,-5.4333,-5.4373,-5.4447,-5.4569,-5.4676,-5.4692,-5.4735,-5.4774,-5.4785,-5.4591,-5.4566,-5.4541,-5.4505,-5.4783,-5.4784,-5.4983,-5.4985,-5.4987]}]]